Flag for Canada Weather past 2 weeks in Conception Bay South, Newfoundland and Labrador, Canada

Now
28 °F

Snow. Ice fog.


Feels Like: 20 °F
Forecast: N/A
Wind: 8 mph from Northeast

Location: St. John's

Current Time: Mar 28, 2015 at 7:52:26 PM

Latest Report: Mar 28, 2015 at 6:30 PM


Visibility: 0 mi

Pressure: 29.69 "Hg

Humidity: 100%

Dew point: 28 °F

Location of Conception Bay SouthLocation

Historic Weather in Conception Bay South — Graph

°F

Conception Bay South temperature yesterday

Maximum temperature yesterday: 41 °F (at 1:30 PM)
Minimum temperature yesterday: 34 °F (at 11:30 PM)
Average temperature yesterday: 37 °F

Past Weeks' High & Low Weather Summary

 TemperatureHumidityPressure
High43 °F (Mar 22, 3:30 PM)100% (Mar 16, 4:30 AM)30.34 "Hg (Mar 16, 4:30 AM)
Low5 °F (Mar 14, 12:30 AM)51% (Mar 26, 1:30 PM)28.71 "Hg (Mar 19, 9:30 AM)
Average26 °F84%29.70 "Hg
* Reported Mar 13 5:30 PM — Mar 28 5:30 PM, Conception Bay South, Weather by CustomWeather, © 2015

Note: Actual official high and low records may vary slightly from our data, if they occured in-between our weather recording intervals... More about our weather records

Advertising

Conception Bay South weather history for previous 24 hours

 ConditionsComfort  
Time TempWeatherWind HumidityBarometerVisibility
5:30 PM
Sat, Mar 28
28 °FSnow. Ice fog.9 mph100%29.72 "Hg1 mi
4:30 PM30 °FIce fog.10 mph93%29.72 "Hg0 mi
3:30 PM32 °FIce fog.12 mph93%29.73 "Hg0 mi
2:30 PM34 °FMore clouds than sun.13 mph100%29.73 "Hg15 mi
1:30 PM36 °FLow clouds.10 mph93%29.75 "Hg15 mi
12:30 PM37 °FPartly sunny.7 mph93%29.75 "Hg15 mi
11:30 AM37 °FMostly cloudy.10 mph93%29.71 "Hg15 mi
10:30 AM37 °FMore clouds than sun.3 mph93%29.70 "Hg15 mi
9:30 AM34 °FLow clouds.5 mph100%29.70 "Hg15 mi
8:30 AM36 °FMore clouds than sun.8 mph100%29.65 "Hg15 mi
8:20 AM36 °FMore clouds than sun.7 mph100%29.65 "Hg15 mi
7:30 AM34 °FDrizzle. Fog.6 mph100%29.63 "Hg0 mi
6:30 AM32 °FDrizzle. Fog.6 mph100%29.61 "Hg0 mi
5:30 AM32 °FLight rain. Fog.3 mph100%29.57 "Hg0 mi
4:30 AM32 °FLight rain. Fog.3 mph100%29.57 "Hg1 mi
3:30 AM32 °FLight rain. Fog.3 mph100%29.59 "Hg1 mi
2:30 AM34 °FLight rain. Fog.6 mph100%29.60 "Hg1 mi
1:30 AM34 °FLight rain. Fog.7 mph100%29.61 "Hg1 mi
12:30 AM34 °FLight rain. Fog.5 mph100%29.63 "Hg1 mi
11:30 PM
Fri, Mar 27
34 °FLight rain. Fog.7 mph100%29.63 "Hg1 mi
10:30 PM36 °FLight rain. Fog.5 mph100%29.62 "Hg1 mi
9:30 PM36 °FLight rain. Fog.2 mph100%29.64 "Hg1 mi
8:30 PM37 °FLight rain. Fog.2 mph100%29.64 "Hg1 mi
8:18 PM37 °FLight rain. Fog.2 mph100%29.64 "Hg1 mi
7:30 PM37 °FLight rain. Fog.No wind100%29.63 "Hg1 mi
Weather by CustomWeather, © 2015

See weather overviewHow to use our weather pages